Winnipeg 'A' Cs, Canada

12:50 AM CST on February 07, 2016 (GMT -0600)
Winnipeg International

Weather History for CYWG - September, 2013

Change the Weather History Date:

Tuesday, September 17, 2013

  Actual Average Record
Temperature  
Mean Temperature 60 °F -  
Max Temperature 68 °F 63 °F 84 °F (2002)
Min Temperature 52 °F 42 °F 28 °F (2012)
Degree Days  
Heating Degree Days 5    
Growing Degree Days 10 (Base 50)    
Moisture  
Dew Point 51 °F    
Average Humidity 68    
Maximum Humidity 88    
Minimum Humidity 49    
Precipitation  
Precipitation 0.02 in - - ()
Sea Level Pressure  
Sea Level Pressure 29.86 in    
Wind  
Wind Speed 18 mph ()    
Max Wind Speed 25 mph    
Max Gust Speed 37 mph    
Visibility 15.0 miles    
Events      
Averages and records for this station are not official NWS values.
T = Trace of Precipitation, MM = Missing Value Source: Averaged Metar Reports

Daily Weather History Graph

Daily Weather History Graph

Search for Another Location

Airport or City:

Trip Planner

Search our weather history database for the weather conditions in past years. The results will help you decide how hot, cold, wet, or windy it might be!

Date:

Astronomy

Sep. 17, 2013 Rise Set
Actual Time 7:08 AM CDT 7:37 PM CDT
Civil Twilight 6:35 AM CDT 8:09 PM CDT
Nautical Twilight 5:57 AM CDT 8:47 PM CDT
Astronomical Twilight 5:17 AM CDT 9:28 PM CDT
Moon 6:29 PM CDT (9/17) 4:56 AM CDT (9/17)
Length of Visible Light 13h 33m
Length of Day
12h 28m
Waxing Gibbous, 96% of the Moon is Illuminated
Sep 17
Waxing Gibbous
Sep 19
Full
Sep 26
Last Quarter
Oct 4
New
Oct 11
First Quarter

Hourly Weather History & Observations

Time (CDT) Temp. Dew Point Humidity Pressure Visibility Wind Dir Wind Speed Gust Speed Precip Events Conditions
12:00 AM 57.2 °F 42.8 °F 59% 30.03 in 15.0 mi South 18.4 mph - N/A   Clear
1:00 AM 57 °F 43 °F 49% 30.00 in - Calm Calm - -  
1:00 AM 57.2 °F 41.0 °F 55% 30.01 in 15.0 mi South 20.7 mph 27.6 mph N/A   Clear
2:00 AM 55.4 °F 39.2 °F 54% 30.00 in 15.0 mi South 24.2 mph 32.2 mph N/A   Clear
3:00 AM 55.4 °F 41.0 °F 58% 29.98 in 15.0 mi South 23.0 mph 29.9 mph N/A   Clear
4:00 AM 53.6 °F 42.8 °F 67% 29.97 in 15.0 mi South 21.9 mph 29.9 mph N/A   Clear
5:00 AM 53.6 °F - N/A% 29.94 in 15.0 mi South 19.6 mph 27.6 mph N/A   Clear
6:00 AM 53.6 °F - N/A% 29.92 in 15.0 mi South 17.3 mph 29.9 mph N/A   Clear
7:00 AM 53 °F 49 °F 81% 29.91 in - Calm Calm - -  
7:00 AM 53.6 °F - N/A% 29.92 in 15.0 mi South 20.7 mph - N/A   Partly Cloudy
8:00 AM 53.6 °F - N/A% 29.91 in 15.0 mi South 17.3 mph 26.5 mph N/A   Clear
9:00 AM 57.2 °F - N/A% 29.89 in 15.0 mi South 20.7 mph 33.4 mph N/A   Clear
10:00 AM 60.8 °F - N/A% 29.87 in 15.0 mi South 20.7 mph 31.1 mph N/A   Clear
11:00 AM 64.4 °F - N/A% 29.86 in 15.0 mi South 18.4 mph 31.1 mph N/A   Partly Cloudy
12:00 PM 66.2 °F - N/A% 29.83 in 15.0 mi South 25.3 mph 36.8 mph N/A   Partly Cloudy
1:00 PM 68 °F 56 °F 57% 29.80 in - Calm Calm - -  
1:00 PM 68.0 °F - N/A% 29.81 in 15.0 mi South 23.0 mph 32.2 mph N/A   Scattered Clouds
2:00 PM 66.2 °F 53.6 °F 64% 29.80 in 15.0 mi South 25.3 mph 33.4 mph N/A   Mostly Cloudy
3:00 PM 66.2 °F 53.6 °F 64% 29.79 in 15.0 mi South 23.0 mph 34.5 mph N/A   Overcast
4:00 PM 66.2 °F 53.6 °F 64% 29.77 in 15.0 mi South 17.3 mph 33.4 mph N/A   Overcast
5:00 PM 64.4 °F 55.4 °F 73% 29.77 in 15.0 mi South 23.0 mph 32.2 mph N/A   Overcast
6:00 PM 64.4 °F 55.4 °F 73% 29.76 in 15.0 mi South 21.9 mph 29.9 mph N/A   Overcast
7:00 PM 64 °F 57 °F 73% 29.75 in - Calm Calm - -   Overcast
7:00 PM 64.4 °F 55.4 °F 73% 29.75 in 15.0 mi South 19.6 mph 26.5 mph N/A   Overcast
8:00 PM 62.6 °F 55.4 °F 77% 29.75 in 15.0 mi South 16.1 mph - N/A   Mostly Cloudy
9:00 PM 60.8 °F 55.4 °F 82% 29.76 in 15.0 mi South 15.0 mph 23.0 mph N/A   Partly Cloudy
10:00 PM 60.8 °F 55.4 °F 82% 29.76 in 15.0 mi South 16.1 mph 23.0 mph N/A   Partly Cloudy
11:00 PM 60.8 °F 57.2 °F 88% 29.75 in 15.0 mi South 17.3 mph 23.0 mph N/A   Clear